Tracking 19293 objects as of 20-Nov-2018
HD Live streaming from Space Station
objects crossing your sky now

INTELSAT 6B (PAS 6B)

Track INTELSAT 6B (PAS 6B) now!
INTELSAT 6B (PAS 6B) is classified as:


NORAD ID: 25585
Int'l Code: 1998-075A
Perigee: 36,053.2 km
Apogee: 36,169.2 km
Inclination: 8.1 °
Period: 1,452.3 minutes
Semi major axis: 42482 km
RCS: 21.1435 m2 (large)
Launch date: December 22, 1998
Source: United States (US)
Launch site: FRENCH GUIANA (FRGUI)

voice and video communcations; 32 Ku-band; South America.
aabbcc
Your satellite tracking list
Your tracking list is empty




NASA's NSSDC Master Catalog

Two Line Element Set (TLE):
1 25585U 98075A   18324.77601060  .00000078  00000-0  00000+0 0  9993
2 25585   8.0997  48.1132 0013648 116.2454 244.2884  0.99149975 72581
Source of the keplerian elements: AFSPC